Location: Miles
(41.4492°N, 81.6087°W)
Time: 08:15:10
(UTC+00:00)

Vanguard 1 Rocket - Pass Details

Date: 15 September 2024
Orbit: 650 x 4218 km, 34.3° (Epoch: 05 October)

Event Time Altitude Azimuth Distance (km) Brightness Sun altitude
Rises 05:27:54 0° 165° (SSE) 4,738 - -45.7°
Reaches altitude 10° 05:35:21 10° 129° (SE) 4,707 - -45.6°
Maximum altitude 05:37:39 11° 119° (ESE) 4,935 - -45.6°
Exits shadow 05:39:22 10° 112° (ESE) 5,161 11.1 -45.5°
Drops below altitude 10° 05:40:10 10° 109° (ESE) 5,277 11.1 -45.5°
Sets 05:51:54 0° 80° (E) 7,447 12.3 -45.2°
